RH
42 43 47 53 60 69 73 75 77 82 89 88 72 60 59 59 52 37 17 6 4 4 5 4 4 3 2 2 1 1 1 1 1 1 1 1 1 2 1 1 1 1 1 1 1 1 1 1 1 1 1 1
38 40 45 52 58 66 75 79 81 87 89 77 63 59 61 58 47 29 12 6 5 5 5 4 3 2 2 2 1 1 1 1 2 1 1 1 1 1 1 1 1 1 1 1 1 1 1 1 1 1 1 1
35 38 44 52 57 61 72 82 85 85 77 64 60 62 62 55 39 20 9 6 5 5 4 3 2 2 1 1 1 2 1 2 2 2 2 2 2 1 2 1 1 1 1 1 1 1 1 1 1 1 1 1
32 38 45 52 58 62 68 74 76 71 64 61 63 63 60 49 30 14 7 5 6 5 3 2 2 1 2 1 2 2 2 2 2 2 2 2 2 1 1 1 1 1 1 1 1 1 1 1 1 1 1 1
28 34 44 53 59 63 65 66 65 63 63 64 63 60 51 37 21 10 6 6 6 4 2 2 2 1 2 2 2 2 2 2 2 2 2 2 2 1 2 1 2 1 1 1 1 1 1 1 1 1 1 1
21 23 34 49 57 61 62 63 64 64 63 61 57 49 39 28 16 8 6 6 5 3 2 1 2 1 2 2 2 2 2 2 2 2 2 2 2 2 2 1 2 2 1 1 1 1 1 1 1 1 1 1
21 19 23 34 46 55 59 60 62 62 59 55 48 38 30 22 12 6 7 7 5 3 2 1 2 2 2 2 2 2 2 2 2 2 2 2 2 2 2 2 2 2 2 2 2 2 1 1 1 1 1 1
27 25 22 23 30 39 48 54 58 58 55 49 41 32 25 16 8 7 7 6 4 2 2 2 2 2 2 2 2 2 2 2 2 2 2 2 2 2 2 2 2 2 2 2 2 2 2 2 2 2 2 1
33 30 25 21 22 28 37 46 50 50 49 43 35 28 19 11 7 8 7 6 3 2 2 2 2 2 2 2 2 3 2 2 2 2 2 2 2 2 2 2 2 2 2 2 2 2 2 2 2 2 2 2
37 34 29 22 19 23 31 37 41 43 41 36 28 21 14 9 8 8 7 5 3 2 2 2 2 2 2 3 3 2 3 2 2 2 2 2 2 2 2 2 2 2 2 2 2 2 2 2 2 2 2 2
40 37 33 26 18 17 22 28 33 35 32 27 21 16 11 8 9 9 6 4 2 2 2 2 2 2 2 3 3 3 3 3 3 3 3 3 3 3 3 3 3 3 3 3 3 3 3 2 2 2 2 2
43 39 37 32 24 15 15 20 24 26 24 21 17 13 10 9 10 9 5 3 2 2 2 2 2 3 3 3 3 3 3 3 3 3 3 3 3 3 3 3 3 3 3 3 3 3 3 3 3 3 3 3
45 42 40 38 32 21 15 15 18 19 19 18 16 12 10 11 12 8 5 3 2 2 2 2 2 3 3 3 3 3 3 3 3 3 3 3 4 4 4 4 4 4 4 4 4 4 4 4 3 3 3 3
48 45 44 42 37 27 18 13 13 15 16 17 15 12 12 13 12 7 4 2 2 2 2 2 3 3 3 3 3 3 4 3 4 4 4 4 4 4 4 4 4 4 4 4 4 4 4 4 4 4 4 4
50 48 48 44 38 29 19 12 11 14 16 16 13 11 13 14 12 7 3 2 2 2 2 2 3 3 3 3 4 4 4 4 4 4 4 5 5 5 5 5 5 5 5 5 5 5 5 4 4 4 4 4
52 51 49 45 39 29 18 11 11 14 15 14 12 12 14 16 12 6 3 2 2 2 2 3 3 3 4 4 4 4 4 4 4 5 5 5 5 5 6 5 6 5 5 5 5 5 5 5 5 5 5 5
53 52 50 46 38 25 15 10 11 14 14 13 12 13 17 17 11 5 2 2 2 2 2 3 3 3 4 4 4 4 5 5 5 5 6 6 6 6 6 6 6 6 6 6 6 6 6 6 6 6 6 6
54 54 50 42 31 20 13 10 13 15 14 12 11 14 19 17 10 4 2 2 2 2 2 3 3 4 4 4 5 5 5 5 6 6 6 7 7 7 7 7 7 7 7 6 7 7 7 7 7 7 7 7
55 52 44 31 21 14 12 12 15 16 13 11 12 16 21 16 9 4 2 2 2 2 3 3 4 4 4 5 5 5 6 6 6 7 7 8 8 8 8 8 8 7 7 7 8 8 8 8 9 9 9 9
51 42 30 20 14 11 13 15 15 14 12 11 14 19 22 16 8 4 3 2 2 2 3 3 4 4 5 5 5 6 6 7 7 8 8 8 9 9 8 8 8 8 8 9 9 9 10 10 10 11 11 11
37 28 20 15 13 11 13 15 13 12 12 13 17 21 22 16 8 4 3 2 2 2 3 3 4 4 5 5 6 6 7 8 8 9 9 10 10 10 10 10 9 10 10 10 11 11 11 11 12 12 12 13
23 19 16 14 14 12 13 15 13 12 13 15 20 22 20 15 8 5 4 2 2 2 3 4 4 5 5 6 6 7 8 9 9 10 10 11 11 11 11 11 11 11 11 12 12 12 12 12 13 13 14 14
17 16 14 12 13 11 11 13 13 14 16 19 21 22 18 14 9 5 4 3 2 2 3 3 4 5 6 6 7 8 9 9 10 11 11 11 12 12 12 12 12 12 13 13 13 13 14 14 14 15 15 15
14 13 11 11 11 11 11 12 14 17 20 21 22 20 16 12 10 7 4 3 2 2 3 3 4 5 6 7 7 9 9 10 11 11 12 13 13 13 13 14 14 14 14 14 15 15 15 16 16 16 16 16
14 13 12 12 13 13 13 15 19 23 25 23 21 19 15 13 12 8 5 4 2 2 3 3 4 5 6 7 8 9 10 11 11 12 13 14 14 14 14 15 15 15 15 15 16 16 16 17 17 17 17 17
15 15 14 15 16 16 17 21 26 29 29 25 22 20 18 15 14 12 7 4 3 2 3 3 4 5 6 8 8 10 11 12 12 13 14 15 15 16 16 16 16 16 16 16 17 16 16 16 17 17 17 17
16 16 17 18 19 19 21 26 30 32 30 25 20 17 16 14 14 13 10 6 3 2 3 3 4 5 7 8 9 11 12 13 14 14 15 16 17 17 17 17 17 17 17 17 17 16 16 16 16 15 15 16
18 19 21 21 22 23 25 28 29 29 25 19 14 11 10 10 11 12 12 8 3 2 3 3 4 6 7 9 10 12 14 15 15 16 16 18 18 18 18 18 18 18 18 18 17 16 15 16 16 15 15 16
22 21 23 23 24 24 25 26 25 22 17 13 10 8 8 9 10 13 14 10 5 3 3 3 4 6 7 9 11 14 16 17 17 17 18 18 19 19 19 19 19 18 18 18 17 16 15 16 16 16 16 16
27 22 22 24 25 25 26 26 24 21 18 16 14 12 13 15 16 19 21 16 8 3 3 4 4 6 8 10 13 16 17 19 19 18 19 19 20 20 20 21 21 20 19 18 17 17 16 17 17 17 18 18
33 27 22 22 24 27 29 30 29 26 24 23 20 16 15 18 22 26 29 26 15 5 3 4 5 6 8 11 14 17 19 20 20 20 20 21 21 22 22 22 22 21 21 20 19 19 19 18 18 18 19 19
Wind_Speed
24 25 25 26 27 28 28 27 27 25 25 26 26 27 28 28 28 28 26 25 24 23 23 22 22 21 21 20 20 20 20 20 20 20 20 20 20 20 20 20 20 20 20 20 19 19 19 19 19 19 18 18
24 25 26 27 28 28 28 28 27 26 26 27 27 28 29 29 29 28 26 25 24 24 23 23 22 22 22 21 21 21 21 21 21 21 21 21 21 21 21 21 20 20 20 19 19 19 19 19 18 18 18 17
25 26 26 27 28 28 28 28 28 27 28 28 29 30 30 31 30 28 27 25 24 24 23 23 23 23 22 22 22 22 22 22 22 22 22 22 22 21 21 21 20 20 19 19 19 19 19 19 18 18 18 17
26 26 26 27 28 28 28 28 29 29 29 30 31 32 32 32 30 28 27 26 25 24 24 24 24 24 23 23 23 23 23 23 23 23 23 22 22 22 21 21 20 20 19 19 19 19 19 19 19 18 18 18
26 26 27 27 28 28 29 29 30 31 31 32 33 33 33 32 30 28 27 26 26 25 25 24 24 24 24 24 24 24 24 24 23 23 23 23 22 22 21 21 20 20 19 19 19 19 19 19 19 19 19 18
26 27 27 27 28 29 30 31 32 33 33 34 34 34 33 31 30 28 28 27 27 26 26 25 25 25 25 25 25 25 24 24 24 24 23 23 23 22 21 21 20 20 19 19 18 18 18 18 18 18 18 19
26 26 27 28 29 30 32 33 33 34 35 35 35 34 33 31 29 28 28 28 28 27 27 26 26 26 26 26 25 25 25 25 24 24 24 23 22 22 21 21 20 19 19 19 18 18 18 18 18 18 18 18
26 26 27 28 30 32 33 34 35 35 35 35 35 34 32 30 29 29 29 29 29 28 28 27 27 27 26 26 26 25 25 25 24 24 24 23 22 22 21 21 20 19 19 19 19 19 19 19 19 19 18 19
27 26 27 29 31 32 34 35 35 36 36 35 34 33 31 31 30 30 30 30 30 29 29 28 28 28 27 26 26 25 25 24 24 24 23 23 23 22 21 21 20 20 20 19 19 19 19 20 20 20 20 20
28 28 28 29 31 32 34 35 36 36 35 35 34 33 32 32 31 31 31 30 30 30 29 29 28 28 27 26 25 25 24 24 24 24 24 23 23 22 22 21 21 21 20 20 20 20 20 21 21 21 21 21
30 29 29 29 31 32 34 35 36 36 36 35 34 33 33 32 32 32 32 31 31 30 30 29 28 28 27 26 25 25 25 25 25 24 24 23 23 22 22 21 21 21 21 21 21 21 21 21 22 22 22 22
30 30 30 29 31 33 34 36 37 37 36 35 34 33 33 32 32 32 32 32 32 31 30 30 29 28 27 27 26 26 26 25 25 24 24 23 23 23 22 22 22 22 22 22 22 22 22 22 22 23 23 23
31 31 31 30 31 33 35 36 37 37 37 35 35 34 33 33 33 33 33 33 32 32 31 30 30 29 28 27 27 26 26 25 25 25 24 24 23 23 23 23 23 23 23 23 22 23 23 23 23 23 24 24
32 33 33 32 33 35 36 37 38 38 37 36 36 35 33 33 34 34 34 34 33 33 32 31 30 30 29 28 27 26 26 25 25 25 24 24 24 24 24 23 23 23 23 23 23 23 23 24 24 24 24 25
35 36 34 34 35 37 37 38 39 38 37 37 37 35 34 34 34 34 34 34 34 34 33 32 31 30 29 28 27 27 26 26 26 26 25 25 25 25 25 24 24 24 24 24 24 24 24 24 25 25 25 26
37 37 36 36 37 38 38 40 40 38 38 38 37 35 35 35 35 35 35 35 35 35 34 33 31 30 29 28 27 27 27 27 27 26 26 26 26 25 25 25 25 24 24 24 25 25 25 25 25 25 26 26
39 38 37 37 39 40 40 41 40 39 40 39 37 36 36 36 37 37 36 37 36 36 35 33 32 31 29 29 28 28 28 28 27 27 27 26 26 25 25 25 25 25 25 25 25 25 25 25 25 25 25 26
40 39 39 40 41 41 41 42 40 40 40 39 38 36 36 37 38 38 38 38 37 36 35 33 32 31 30 29 29 29 29 29 28 27 27 26 26 26 26 26 25 25 25 25 25 25 25 25 25 26 26 26
41 41 41 41 42 42 42 42 41 41 41 39 39 37 37 39 38 39 39 38 38 37 35 34 33 32 31 30 30 30 30 29 29 28 27 27 26 26 26 26 26 26 26 26 26 26 26 26 26 26 26 26
43 43 43 42 42 43 42 42 42 42 41 40 39 38 38 39 39 40 40 39 39 37 36 34 34 33 32 32 32 31 31 30 29 28 28 27 27 27 27 27 27 26 26 26 26 26 26 26 26 27 27 28
44 44 44 43 42 43 42 42 42 42 42 41 40 39 39 40 40 41 40 40 40 38 37 36 35 34 33 33 33 32 32 31 30 29 28 28 28 28 28 27 27 27 27 27 27 27 27 27 28 28 29 29
44 44 44 43 42 43 43 42 42 42 42 41 40 40 40 40 40 41 41 41 40 39 38 37 36 35 35 35 34 33 32 31 31 30 30 29 29 29 29 28 28 28 28 28 28 28 28 29 29 30 30 31
44 44 44 43 43 43 43 42 42 42 42 41 41 41 40 40 41 42 42 42 41 40 39 38 38 37 36 36 35 34 33 32 31 31 31 31 30 30 29 29 29 29 29 29 29 29 30 30 31 32 32 32
42 43 43 43 42 43 41 41 42 42 42 41 41 41 41 41 41 42 42 42 42 41 40 39 39 39 38 37 36 35 34 33 33 33 33 32 32 31 31 30 30 30 30 30 30 30 31 31 32 34 35 35
40 41 41 41 41 41 40 40 41 41 42 41 41 40 41 41 41 42 43 43 43 42 41 41 41 40 39 38 37 36 35 35 35 35 35 34 33 33 32 32 31 31 31 31 31 32 32 32 33 34 36 37
39 40 40 40 40 40 40 40 40 41 41 41 41 40 41 41 41 42 43 44 44 44 43 42 42 41 40 39 38 37 37 37 37 37 36 36 35 34 34 34 33 33 33 33 33 33 33 34 34 35 37 37
38 39 39 40 40 41 41 40 40 40 41 42 42 41 42 42 42 43 44 45 45 45 44 43 43 43 41 40 39 39 38 39 39 38 38 37 37 37 36 36 35 35 34 34 35 35 35 35 36 38 38 38
37 38 39 39 40 41 41 41 41 41 42 43 43 43 42 43 43 43 45 46 46 46 45 44 44 44 43 41 41 40 40 40 40 40 39 39 39 39 39 38 38 37 36 36 36 35 36 36 37 39 39 39
36 38 39 39 40 41 42 42 41 41 42 42 43 42 42 42 43 44 46 48 48 48 46 45 45 45 44 43 42 42 42 42 42 41 41 41 41 41 41 41 40 40 39 38 36 36 36 37 38 38 39 41
36 37 38 39 40 41 41 42 42 41 41 41 41 41 41 42 43 44 46 48 49 49 48 46 45 45 46 45 44 43 43 43 43 43 43 43 43 43 43 43 43 43 41 40 38 37 36 37 38 39 40 41
38 38 38 39 39 40 41 42 42 41 41 41 41 41 41 41 42 43 46 48 49 50 49 47 46 46 46 46 45 44 44 44 45 45 45 45 45 45 45 46 46 45 44 44 42 40 39 38 39 40 40 42
Wind_Direction
274 273 271 269 268 266 267 268 267 267 268 268 268 270 275 280 284 285 282 275 269 266 264 262 261 260 259 257 256 255 255 255 256 256 257 257 257 257 257 257 258 258 259 259 260 261 261 261 261 262 261 261
274 272 270 268 267 266 265 267 269 268 267 266 268 272 276 280 283 282 277 270 264 261 260 259 259 258 257 256 255 254 253 253 253 254 255 256 257 257 258 258 257 257 258 258 259 260 261 262 262 262 262 262
273 271 269 267 266 266 264 264 266 266 266 267 270 274 278 281 282 279 273 266 261 258 256 255 254 254 253 253 252 252 252 253 253 254 254 255 256 256 256 256 255 255 255 256 256 257 258 259 260 260 261 261
272 270 268 267 266 266 264 264 265 265 266 269 272 275 278 281 280 275 269 263 258 255 253 252 251 250 250 250 250 251 252 253 254 255 255 255 255 254 254 253 253 253 252 253 253 253 254 255 256 256 257 257
272 270 268 266 265 265 265 265 265 266 268 270 273 276 278 279 277 271 266 261 257 254 252 250 249 248 248 249 250 251 253 254 255 256 256 255 255 254 254 254 254 254 254 254 254 253 253 253 253 253 254 255
271 270 269 267 266 265 265 265 265 267 268 271 274 276 277 276 273 268 263 259 256 254 251 250 249 248 249 249 250 252 254 254 255 255 255 255 255 255 255 255 255 256 256 256 257 257 256 256 256 256 256 256
272 272 271 269 267 265 265 266 266 268 269 272 274 275 275 273 270 265 260 257 255 253 251 250 249 249 249 250 251 252 254 255 255 255 255 255 255 256 256 257 257 258 259 259 260 260 261 261 261 262 262 262
274 275 274 271 268 267 267 267 268 269 271 273 274 274 274 271 266 261 258 256 254 252 251 250 249 249 249 250 252 253 255 256 257 257 257 257 257 258 258 259 259 260 261 262 263 264 265 265 265 265 266 267
274 276 275 273 270 269 268 268 269 270 272 273 273 274 273 268 263 259 256 254 253 251 250 250 249 250 250 252 254 256 257 258 259 259 259 259 259 260 260 261 262 263 264 265 266 266 267 268 268 268 268 269
274 275 275 274 273 271 269 269 269 270 271 272 273 273 270 266 262 258 255 253 252 251 250 250 250 251 253 255 257 259 260 260 261 261 261 261 261 262 263 264 265 266 267 268 268 269 269 270 270 271 271 271
272 273 274 274 274 273 271 270 269 270 270 271 272 270 267 263 260 257 255 253 252 251 251 251 252 253 255 257 259 260 261 261 261 262 262 263 264 265 266 267 268 268 269 269 270 270 270 271 271 272 272 272
270 271 272 274 275 274 272 271 270 270 270 271 270 267 264 261 258 256 254 253 252 252 252 252 253 254 255 257 259 260 261 262 262 263 264 265 266 266 267 268 268 268 269 269 269 270 270 271 271 272 273 273
269 270 272 274 275 275 273 271 270 270 270 270 269 266 263 260 257 255 254 253 252 252 252 252 253 254 255 257 259 260 261 262 263 264 264 265 266 267 267 267 268 269 269 269 270 270 271 271 272 272 273 274
270 271 273 275 275 275 272 270 269 269 269 269 267 266 263 259 257 255 253 253 252 252 252 252 253 254 256 257 259 261 262 263 264 265 265 266 267 267 268 268 269 269 270 270 271 271 271 272 272 273 273 274
270 271 273 275 275 275 273 270 269 268 268 267 266 265 261 258 257 255 253 252 252 251 251 252 253 254 256 258 259 261 262 264 264 265 266 266 267 268 268 269 269 270 270 271 271 271 271 272 272 273 273 274
268 270 272 274 275 275 273 270 268 267 266 265 265 262 260 258 256 254 253 252 251 250 251 251 252 254 256 257 259 261 262 263 264 265 265 266 267 268 269 269 270 270 270 271 271 271 271 272 272 273 273 274
267 269 272 273 274 274 272 269 268 266 265 265 263 261 258 257 255 254 252 251 250 250 250 251 252 254 255 257 259 260 261 262 263 264 265 266 267 268 268 269 270 270 270 270 270 270 271 271 271 272 272 273
267 270 272 272 273 272 269 267 266 265 265 264 263 260 257 256 254 253 252 250 250 250 251 251 252 254 256 257 258 259 260 261 262 263 264 265 266 267 267 267 268 268 268 268 269 269 270 270 271 271 272 273
268 270 271 271 270 268 266 265 265 264 264 263 261 258 256 255 254 253 252 250 250 250 251 251 252 254 255 257 258 259 260 260 261 261 262 263 264 265 265 265 265 266 266 267 268 269 270 271 272 273 274 274
268 269 269 268 266 265 264 263 263 263 263 262 260 257 255 255 253 253 252 250 250 250 251 252 253 254 255 256 257 258 259 259 260 260 261 262 263 263 264 264 265 266 266 267 268 270 271 272 273 275 276 276
267 268 267 266 264 264 263 262 262 262 262 261 259 256 255 254 253 252 251 249 249 250 250 251 252 254 255 256 257 257 258 258 259 260 261 261 262 263 263 264 265 266 267 269 270 272 273 274 275 276 277 277
266 266 266 264 262 262 262 261 262 262 261 260 258 257 255 254 253 252 250 249 249 249 250 251 253 254 255 255 256 257 257 258 259 259 260 261 262 263 264 265 267 268 270 271 273 274 275 276 276 277 277 278
265 265 265 264 262 263 263 262 262 262 261 260 259 258 257 254 253 252 250 249 249 249 251 252 254 254 254 255 255 256 257 258 259 259 260 261 262 263 265 266 268 269 271 272 274 275 276 277 278 278 278 278
266 266 266 266 265 266 267 265 264 264 263 262 261 260 258 256 254 253 251 250 250 250 252 253 253 253 253 254 255 256 258 258 259 259 260 261 262 264 265 266 268 269 271 272 274 275 276 277 278 279 279 279
268 267 268 268 269 269 268 266 265 265 265 264 263 262 261 259 257 255 253 251 250 251 251 252 253 253 253 255 256 257 258 258 258 259 260 261 262 263 264 266 267 268 270 272 273 274 276 277 278 279 279 280
270 269 269 269 269 268 267 266 265 265 266 266 265 263 262 261 259 257 254 252 250 250 251 252 253 253 254 255 256 256 257 258 258 258 259 260 262 262 264 265 266 268 270 272 273 273 275 276 276 276 277 279
270 269 268 268 268 268 267 266 265 265 265 265 264 262 261 261 259 257 255 252 250 250 250 252 253 253 254 255 255 256 257 257 257 258 259 260 261 262 264 265 266 268 270 271 272 274 275 276 276 276 277 279
269 268 267 267 267 267 266 266 265 264 264 264 265 264 263 262 260 258 255 252 250 249 250 251 252 253 254 254 255 256 256 257 257 258 259 260 261 263 264 265 267 268 269 270 272 274 276 277 278 279 280 280
267 267 267 267 267 267 267 267 267 266 266 268 269 269 268 267 264 260 257 253 251 250 250 251 252 254 254 254 255 256 256 257 257 258 258 259 261 263 264 266 267 268 268 269 271 273 275 278 280 281 282 282
264 266 267 268 268 269 269 270 270 269 270 270 271 271 270 268 266 264 260 256 253 252 251 251 253 254 255 255 255 256 257 257 258 258 258 259 261 262 264 265 266 267 268 268 269 271 274 277 279 281 282 283
263 264 265 266 267 269 270 270 270 271 271 271 271 270 269 267 266 263 261 259 256 254 253 252 253 254 255 255 256 256 257 258 259 259 259 260 261 262 264 265 266 268 269 268 268 270 273 275 277 279 280 281